Weather History for Wichita Falls, TX

Change the Weather History Date:

Friday, January 25, 2013

  Actual Average Record
Temperature  
Mean Temperature 40 °F 42 °F  
Max Temperature 49 °F 55 °F 82 °F (1952)
Min Temperature 30 °F 30 °F 10 °F (1940)
Degree Days  
Heating Degree Days 25 22  
Month to date heating degree days 581 582  
Since 1 July heating degree days 1626 1779  
Moisture  
Dew Point 31 °F    
Average Humidity 73    
Maximum Humidity 85    
Minimum Humidity 60    
Precipitation  
Precipitation 0.00 in 0.04 in 1.04 in (1973)
Month to date precipitation 0.45 0.90  
Year to date precipitation 0.45 0.90  
Snow  
Snow 0.00 in 0.00 in - ()
Month to date snowfall T 1.1  
Since 1 July snowfall 3.5 2.4  
Snow Depth -    
Sea Level Pressure  
Sea Level Pressure 30.18 in    
Wind  
Wind Speed 8 mph (NNE)    
Max Wind Speed 21 mph    
Max Gust Speed 28 mph    
Visibility 8 miles    
Events      
T = Trace of Precipitation, MM = Missing Value Source: NWS Daily Summary

Daily Weather History Graph

Daily Weather History Graph

Search for Another Location

Airport:

Trip Planner

Search our weather history database for the weather conditions in past years. The results will help you decide how hot, cold, wet, or windy it might be!

Date:

Astronomy

Jan. 25, 2013 Rise Set
Actual Time 7:35 AM CST 5:57 PM CST
Civil Twilight 7:08 AM CST 6:24 PM CST
Nautical Twilight 6:38 AM CST 6:54 PM CST
Astronomical Twilight 6:08 AM CST 7:24 PM CST
Moon 4:56 PM CST (1/25) 6:15 AM CST (1/25)
Length of Visible Light 11h 16m
Length of Day
10h 22m
Waxing Gibbous, 98% of the Moon is Illuminated
Jan 25
Waxing Gibbous
Jan 26
Full
Feb 3
Last Quarter
Feb 10
New
Feb 17
First Quarter

Hourly Weather History & Observations

Time (CST) Temp. Windchill Dew Point Humidity Pressure Visibility Wind Dir Wind Speed Gust Speed Precip Events Conditions
12:52 AM 35.1 °F 28.6 °F 30.0 °F 82% 30.11 in 9.0 mi North 8.1 mph - N/A   Clear
1:18 AM 35.6 °F 29.9 °F 28.4 °F 75% 30.10 in 9.0 mi North 6.9 mph - N/A   Scattered Clouds
1:27 AM 35.6 °F 28.6 °F 30.2 °F 81% 30.11 in 9.0 mi North 9.2 mph - N/A   Mostly Cloudy
1:52 AM 36.0 °F 29.0 °F 28.9 °F 76% 30.10 in 9.0 mi NNE 9.2 mph - N/A   Overcast
2:52 AM 35.1 °F 26.4 °F 28.0 °F 76% 30.12 in 9.0 mi NNE 12.7 mph - N/A   Overcast
3:52 AM 34.0 °F 26.6 °F 28.0 °F 79% 30.11 in 9.0 mi NNE 9.2 mph - N/A   Overcast
4:52 AM 34.0 °F 25.0 °F 27.0 °F 75% 30.12 in 9.0 mi NNE 12.7 mph - N/A   Overcast
5:29 AM 33.8 °F 24.3 °F 26.6 °F 75% 30.13 in 9.0 mi NNE 13.8 mph - N/A   Overcast
5:52 AM 33.1 °F 26.1 °F 26.1 °F 75% 30.14 in 8.0 mi NNE 8.1 mph - N/A   Mostly Cloudy
6:25 AM 30.2 °F 23.4 °F 26.6 °F 86% 30.14 in 8.0 mi NNE 6.9 mph - N/A   Scattered Clouds
6:52 AM 30.0 °F 23.2 °F 26.1 °F 85% 30.17 in 8.0 mi North 6.9 mph - N/A   Scattered Clouds
7:52 AM 30.0 °F 21.1 °F 25.0 °F 82% 30.22 in 6.0 mi NNE 10.4 mph - N/A   Mostly Cloudy
8:52 AM 30.9 °F 19.8 °F 26.1 °F 82% 30.24 in 7.0 mi NNE 16.1 mph - N/A   Mostly Cloudy
9:05 AM 32.0 °F 22.5 °F 26.6 °F 80% 30.23 in 3.0 mi NNE 12.7 mph - N/A   Haze
9:21 AM 32.0 °F 22.1 °F 26.6 °F 80% 30.23 in 6.0 mi NNE 13.8 mph - N/A   Haze
9:52 AM 33.1 °F 23.9 °F 28.9 °F 85% 30.24 in 4.0 mi NNE 12.7 mph - N/A   Overcast
10:52 AM 39.0 °F 32.3 °F 30.0 °F 70% 30.24 in 7.0 mi NNE 10.4 mph - N/A   Mostly Cloudy
11:52 AM 42.1 °F 36.1 °F 30.9 °F 65% 30.24 in 8.0 mi NNE 10.4 mph - N/A   Mostly Cloudy
12:14 PM 42.8 °F 37.5 °F 32.0 °F 66% 30.22 in 8.0 mi NNE 9.2 mph - N/A   Mostly Cloudy
12:52 PM 42.1 °F 37.7 °F 32.0 °F 67% 30.22 in 9.0 mi NNE 6.9 mph - N/A   Mostly Cloudy
1:14 PM 42.8 °F 37.5 °F 33.8 °F 70% 30.20 in 10.0 mi North 9.2 mph - N/A   Mostly Cloudy
1:52 PM 45.0 °F 43.5 °F 33.1 °F 63% 30.21 in 10.0 mi Variable 3.5 mph - N/A   Mostly Cloudy
2:52 PM 46.0 °F 42.5 °F 34.0 °F 63% 30.20 in 10.0 mi Variable 6.9 mph - N/A   Mostly Cloudy
3:52 PM 48.9 °F - 35.1 °F 59% 30.20 in 10.0 mi North 8.1 mph - N/A   Mostly Cloudy
4:52 PM 48.0 °F - 35.1 °F 61% 30.18 in 10.0 mi NNE 6.9 mph - N/A   Mostly Cloudy
5:52 PM 46.0 °F 42.5 °F 35.1 °F 66% 30.19 in 9.0 mi North 6.9 mph - N/A   Mostly Cloudy
6:52 PM 44.1 °F 41.5 °F 35.1 °F 71% 30.19 in 10.0 mi NNE 4.6 mph - N/A   Mostly Cloudy
7:52 PM 43.0 °F 41.3 °F 35.1 °F 74% 30.20 in 10.0 mi NNE 3.5 mph - N/A   Mostly Cloudy
8:52 PM 43.0 °F 40.3 °F 35.1 °F 74% 30.19 in 10.0 mi ENE 4.6 mph - N/A   Mostly Cloudy
9:52 PM 42.1 °F - 35.1 °F 76% 30.21 in 10.0 mi Calm Calm - N/A   Clear
10:52 PM 39.9 °F 36.7 °F 34.0 °F 79% 30.23 in 10.0 mi NNW 4.6 mph - N/A   Clear
11:52 PM 37.0 °F 32.4 °F 33.1 °F 86% 30.21 in 8.0 mi North 5.8 mph - N/A   Clear